Regional Weather Roundup
Issued by NWS

Home | Current Version | Previous Version | Text Only | Print | Product List | Glossary Off
Versions: 1 2 3 4 5 6 7 8 9 10 11 12 13 14 15 16 17 18 19 20 21 22 23 24 25 26 27 28 29 30 31 32 33 34 35 36 37 38 39 40 41 42 43 44 45 46 47 48 49 50

000
ASUS45 KABQ 011401
RWRNM
NEW MEXICO REGIONAL WEATHER ROUNDUP
NATIONAL WEATHER SERVICE ALBUQUERQUE NM
800 AM MDT SAT AUG 01 2015

NOTE: "FAIR" MEANS FEW OR NO CLOUDS BELOW 12,000 FEET AGL WITH NO
       SIGNIFICANT WEATHER OR OBSTRUCTIONS TO VISION.

      THIS PRODUCT IS RELEASED AS TWO VERSIONS.  ONE VERSION NEAR
      THE TOP OF THE HOUR CONTAINING PRELIMINARY DATA FROM ALBUQUERQUE
      AND OTHER STATIONS.  A FINAL VERSION WITH ADDITIONAL DATA IS
      ISSUED ABOUT 10 MINUTES AFTER THE HOUR.

NMZ501-503-504-510>518-011500-
NORTHWEST PLATEAU/NORTHCENTRAL MOUNTAINS

CITY           SKY/WX    TMP DP  RH WIND       PRES   REMARKS
FARMINGTON     LGT RAIN  63  59  87 NE6       30.27R
SANTA FE       MOSUNNY   64  59  83 NW3       30.35S
TAOS           CLOUDY    59  48  67 CALM      30.42S

$$
NMZ402-403-502-505>509-011500-
WESTCENTRAL MOUNTAINS/SOUTHWEST MOUNTAINS

CITY           SKY/WX    TMP DP  RH WIND       PRES   REMARKS
GALLUP         PTSUNNY   64  58  80 NE5       30.34R
SILVER CITY      N/A     70  57  64 NW3       30.26R

$$
NMZ407-409-411-412-011500-
SOUTHERN DESERTS

CITY           SKY/WX    TMP DP  RH WIND       PRES   REMARKS
DEMING         SUNNY     74  60  61 E10       30.17R
HOLLOMAN AFB   SUNNY     75  59  58 N7        30.17R
ALAMOGORDO     SUNNY     72  57  60 SE6       30.20R
T OR C         MOSUNNY   69  61  75 CALM      30.23R

$$
NMZ519>523-011500-
CENTRAL VALLEYS/CENTRAL HIGHLANDS

CITY           SKY/WX    TMP DP  RH WIND       PRES   REMARKS
ALBUQUERQUE    MOSUNNY   70  59  68 NW3       30.29S
DOUBLE EAGLE   PTSUNNY   66  59  77 CALM      30.33R
MORIARTY ARPT    N/A     66  58  73 N6        30.35R
CLINES CORNERS MOSUNNY   64  55  72 NW14      30.36S
BELEN          FAIR      71  57  61 E3        30.28S
SOCORRO        NOT AVBL

$$
NMZ524>526-539-540-011500-
SOUTHCENTRAL MOUNTAINS

CITY           SKY/WX    TMP DP  RH WIND       PRES   REMARKS
RUIDOSO          N/A    N/A N/A N/A MISG        N/A

$$
NMZ527>531-011500-
NORTHEAST HIGHLANDS/NORTHEAST PLAINS

CITY           SKY/WX    TMP DP  RH WIND       PRES   REMARKS
LAS VEGAS        N/A     62  56  80 S5        30.35S
RATON          PTSUNNY   64  60  87 S3        30.30F
CLAYTON        MOSUNNY   68  63  84 W15       30.20F

$$
NMZ532>537-011500-
EASTCENTRAL PLAINS

CITY           SKY/WX    TMP DP  RH WIND       PRES   REMARKS
TUCUMCARI      PTSUNNY   71  67  87 S5        30.19R
CANNON AFB     PTSUNNY   68  66  94 S7        30.22S
CLOVIS AIRPORT PTSUNNY   68  64  88 S8        30.23S

$$
NMZ028-029-538-011500-
SOUTHEAST PLAINS

CITY           SKY/WX    TMP DP  RH WIND       PRES   REMARKS
ROSWELL        SUNNY     76  65  68 NE7       30.17R
ARTESIA        SUNNY     77  66  69 NE9       30.17R
CARLSBAD       SUNNY     79  63  57 NW8       30.14R
HOBBS          SUNNY     73  66  78 NE8       30.19R


$$


USA.gov is the U.S. government's official web portal to all federal, state and local government web resources and services.